World > North America > United States > Illinois

Hourly Augsburg, IL Regional Weather

Feedback E-mail the Weather

Quick WX

Augsburg, IL Weather Maps

°F °C°F °C
Augsburg Weather Map
UTC Time: 7/3/2022, 23:36
Your Time:

Augsburg, IL Regional Weather

Expires:202207040000;;633692
ASUS43 KLOT 032309
RWRIL 

ILLINOIS REGIONAL WEATHER ROUNDUP
NATIONAL WEATHER SERVICE CHICAGO/ROMEOVILLE IL
600 PM CDT SUN JUL 03 2022

NOTE: "FAIR" INDICATES FEW OR NO CLOUDS BELOW 12,000 FEET WITH NO
SIGNIFICANT WEATHER AND/OR OBSTRUCTIONS TO VISIBILITY.

* THESE STATIONS ARE NOT UNDER NWS QUALITY CONTROL. THEY ALSO MAY NOT
  REPORT WEATHER SUCH AS PRECIPITATION OR FOG.


ILZ064>066-069>071-074>076-080>082-084>086-088>090-092>094-040000-
SOUTH-CENTRAL ILLINOIS
  
CITY           SKY/WX    TMP DP  RH WIND       PRES   REMARKS
CARBONDALE     SUNNY     88  72  58 NE7       30.03F HX  94           
EFFINGHAM*     SUNNY     85  63  46 E6        30.09F HX  86           
MARION         MOSUNNY   88  75  66 NE8       30.04F HX  97           
MT. VERNON     SUNNY    N/A N/A N/A E8        30.06F                  
CENTRALIA*     SUNNY     86  71  60 E8        30.05F HX  90           
SALEM*         MOSUNNY   85  69  59 CALM      30.06F HX  88           
METROPOLIS*    MOSUNNY   86  73  64 NE5       30.03S HX  93           
$$


SKY/WX - Weather  TMP - Temperature  DP - Dew Point  RH - Humidity
WIND - Wind Direction/Speed PRES - Barometric Pressure VSB - Visibility
WCI - Wind Chill Index E13G22 Wind - East Wind 13 mph/Gusts of 22 mph

Trending Headlines

Augsburg Radar Loop



Augsburg Quick Facts


National Two Day Weather Forecast


E-mail the Augsburg Weather Forecast

Voice your opinion or tell us about page issues...